Location: Newark
(44.6394°N, 22.2943°E)
Time: 12:17:04
(UTC+00:00)

CAS-4B - Visible Passes

Search period start: 05 December 2023 00:00
Search period end: 15 December 2023 00:00
Orbit: 494 x 508 km, 43.0° (Epoch: 05 December)

Date Brightness Start Highest point End Pass type
(mag) Time Alt. Az. Time Alt. Az. Time Alt. Az.
05 Dec ? 16:10:38 10° W 16:14:28 65° S 16:16:53 21° ESE visible
05 Dec ? 17:50:07 10° W 17:51:31 19° WSW 17:51:31 19° WSW visible
06 Dec ? 15:48:48 10° W 15:52:37 64° S 15:56:18 11° ESE visible
06 Dec ? 17:28:18 10° W 17:30:56 26° SW 17:30:56 26° SW visible
07 Dec ? 15:26:56 10° W 15:30:46 63° S 15:34:35 10° ESE visible
07 Dec ? 17:06:28 10° W 17:09:46 27° SSW 17:10:29 25° S visible
08 Dec ? 16:44:36 10° W 16:47:52 26° SSW 16:50:09 15° SSE visible
09 Dec ? 16:22:43 10° W 16:25:55 25° SSW 16:29:06 10° SSE visible
10 Dec ? 16:00:49 10° W 16:03:57 24° SSW 16:07:05 10° SSE visible
11 Dec ? 15:38:54 10° W 15:41:59 23° SSW 15:45:02 10° SSE visible
12 Dec ? 15:16:57 10° W 15:19:58 22° SSW 15:22:58 10° SSE visible
